TimeCST,TemperatureF,Dew PointF,Humidity,Sea Level PressureIn,VisibilityMPH,Wind Direction,Wind SpeedMPH,Gust SpeedMPH,PrecipitationIn,Events,Conditions,WindDirDegrees,DateUTC
12:53 AM,51.1,48.0,89,30.29,10.0,ENE,4.6,-,N/A,,Clear,70,2012-11-30 06:53:00
1:53 AM,50.0,48.0,93,30.30,10.0,ENE,3.5,-,N/A,,Mostly Cloudy,60,2012-11-30 07:53:00
2:53 AM,51.1,48.9,92,30.29,9.0,ENE,3.5,-,N/A,,Mostly Cloudy,70,2012-11-30 08:53:00
3:53 AM,51.1,48.9,92,30.29,8.0,East,3.5,-,N/A,,Overcast,90,2012-11-30 09:53:00
4:53 AM,50.0,48.9,96,30.30,7.0,Calm,Calm,-,N/A,,Overcast,0,2012-11-30 10:53:00
5:53 AM,50.0,48.9,96,30.31,8.0,ENE,4.6,-,N/A,,Mostly Cloudy,70,2012-11-30 11:53:00
6:53 AM,50.0,48.9,96,30.32,5.0,ENE,3.5,-,N/A,,Mostly Cloudy,60,2012-11-30 12:53:00
7:53 AM,54.0,51.1,90,30.32,10.0,East,8.1,-,N/A,,Mostly Cloudy,80,2012-11-30 13:53:00
8:53 AM,57.9,52.0,81,30.32,10.0,Calm,Calm,-,N/A,,Mostly Cloudy,0,2012-11-30 14:53:00
9:53 AM,64.9,53.1,65,30.32,10.0,ESE,8.1,-,N/A,,Mostly Cloudy,110,2012-11-30 15:53:00
10:53 AM,70.0,54.0,57,30.29,10.0,East,6.9,-,N/A,,Clear,80,2012-11-30 16:53:00
11:53 AM,72.0,52.0,49,30.26,10.0,Variable,4.6,-,N/A,,Partly Cloudy,0,2012-11-30 17:53:00
12:53 PM,73.9,51.1,45,30.24,10.0,ENE,5.8,-,N/A,,Clear,70,2012-11-30 18:53:00
1:53 PM,72.0,50.0,46,30.22,10.0,East,5.8,-,N/A,,Mostly Cloudy,100,2012-11-30 19:53:00
2:53 PM,71.1,51.1,49,30.22,10.0,ESE,3.5,-,N/A,,Mostly Cloudy,110,2012-11-30 20:53:00
3:53 PM,70.0,52.0,53,30.22,10.0,Calm,Calm,-,N/A,,Overcast,0,2012-11-30 21:53:00
4:53 PM,64.0,54.0,70,30.23,10.0,Calm,Calm,-,N/A,,Partly Cloudy,0,2012-11-30 22:53:00
5:53 PM,62.1,55.0,78,30.24,10.0,Calm,Calm,-,N/A,,Overcast,0,2012-11-30 23:53:00
6:53 PM,61.0,55.0,81,30.25,10.0,Calm,Calm,-,N/A,,Overcast,0,2012-12-01 00:53:00
7:53 PM,59.0,54.0,83,30.25,10.0,Calm,Calm,-,N/A,,Overcast,0,2012-12-01 01:53:00
9:53 PM,53.1,51.1,93,30.26,10.0,Calm,Calm,-,N/A,,Clear,0,2012-12-01 03:53:00
10:53 PM,51.1,48.9,92,30.26,10.0,Calm,Calm,-,N/A,,Clear,0,2012-12-01 04:53:00
11:53 PM,50.0,48.9,96,30.25,10.0,Calm,Calm,-,N/A,,Clear,0,2012-12-01 05:53:00